Location: Goleszów
(49.7327°N, 18.7414°E)
Time: 09:17:27
(UTC+02:00)

Tiangong 2 - Visible Passes

Search period start: 21 May 2019 00:00
Search period end: 31 May 2019 00:00
Orbit: 379 x 387 km, 42.8° (Epoch: 21 May)

Date Brightness Start Highest point End Pass type
(mag) Time Alt. Az. Time Alt. Az. Time Alt. Az.
21 May 2.5 22:01:17 10° SW 22:03:39 20° S 22:03:51 19° SSE visible
22 May 2.7 22:37:24 10° SW 22:39:08 20° SSW 22:39:08 20° SSW visible
23 May 2.4 21:37:36 10° SW 21:40:07 22° S 21:42:00 14° SE visible
23 May 3.6 23:13:57 10° WSW 23:14:11 11° WSW 23:14:11 11° WSW visible
24 May 2.4 22:13:56 10° WSW 22:16:25 22° S 22:16:54 21° S visible
25 May 2.5 21:14:01 10° SW 21:16:34 23° S 21:19:06 10° SE visible
25 May 3.3 22:50:44 10° SW 22:51:41 14° SW 22:51:41 14° SW visible
26 May 2.8 21:50:32 10° WSW 21:52:51 19° SSW 21:54:16 15° SSE visible
27 May 3.4 22:27:53 10° SW 22:28:58 11° SSW 22:28:58 11° SSW visible
28 May 3.1 21:27:14 10° WSW 21:29:13 15° SSW 21:31:10 10° SSE visible
